Location: Newark
(40.9833°N, 0.0333°W)
Time: 03:47:39
(UTC+00:00)

Transit 2A Rocket - Pass Details

Date: 02 November 2020
Orbit: 588 x 914 km, 66.7° (Epoch: 26 November)

Event Time Altitude Azimuth Distance (km) Brightness Sun altitude
Rises 15:56:09 0° 339° (NNW) 3,290 8.2 9.2°
Reaches altitude 10° 15:59:15 10° 355° (N) 2,292 7.3 8.7°
Maximum altitude 16:03:10 21° 44° (NE) 1,581 6.2 8.0°
Drops below altitude 10° 16:06:50 10° 94° (E) 2,122 6.8 7.4°
Sets 16:09:33 0° 110° (ESE) 2,976 7.6 7.0°
